Temperature
15 14 14 14 14 13 13 13 13 13 13 13 13 13 13 14 14 14 14 14 15 15 15 16 16 16 16 17 17 17 17 17 17 17 17 17 18 18 18 18 18 18 18
15 14 14 14 13 13 13 13 13 12 12 12 12 12 13 13 13 13 13 14 14 14 15 15 15 16 16 16 16 16 17 16 16 16 17 17 17 18 18 18 18 18 18
15 14 14 14 13 13 13 13 12 12 12 12 12 12 12 13 13 13 13 13 13 14 14 15 15 15 16 16 16 16 16 16 16 16 16 17 17 17 18 18 18 18 18
15 14 14 14 13 13 13 12 12 12 12 12 12 12 12 12 12 12 13 13 13 13 14 14 14 15 15 16 16 16 16 16 16 16 16 16 17 17 17 18 18 18 18
15 14 14 14 13 13 13 12 12 12 12 12 12 11 11 11 12 12 12 13 13 13 13 14 14 14 15 15 15 16 16 16 16 16 16 16 16 16 17 17 18 18 18
15 14 14 14 13 13 12 12 12 12 12 11 11 11 11 11 12 12 12 12 13 13 13 13 14 14 14 15 15 15 15 15 16 16 16 16 16 16 16 17 17 18 18
15 14 14 14 13 13 12 12 12 12 12 11 11 11 11 11 11 11 12 12 12 12 13 13 13 14 14 14 14 15 15 15 15 16 16 16 16 16 16 16 17 17 17
15 14 14 14 13 13 13 12 12 12 11 11 11 11 11 11 11 11 11 12 12 12 12 12 13 13 13 14 14 14 15 15 15 15 15 15 15 15 15 16 16 16 16
15 15 14 14 13 13 13 12 12 12 12 11 11 11 11 11 11 11 11 12 12 12 12 12 12 13 13 13 14 14 14 14 15 15 15 15 15 15 15 15 15 16 16
15 15 14 14 14 13 13 12 12 12 12 11 11 11 11 11 11 11 11 11 11 12 12 12 12 12 13 13 13 13 14 14 14 14 14 15 15 15 15 15 15 15 15
15 15 15 14 14 13 13 13 12 12 12 11 11 11 11 11 11 11 11 11 11 11 11 12 12 12 12 13 13 13 13 13 14 14 14 14 14 15 14 15 15 15 15
15 15 15 14 14 14 13 13 13 12 12 11 11 11 11 11 11 11 11 11 11 11 11 11 11 12 12 12 13 13 13 13 13 14 14 14 14 14 14 14 14 15 15
16 15 15 15 14 14 13 13 13 12 12 12 11 11 11 11 10 10 10 10 11 11 11 11 11 11 11 12 12 12 13 13 13 13 13 14 14 14 14 14 14 14 14
16 15 15 15 14 14 14 13 13 12 12 12 11 11 11 10 10 10 10 10 10 10 11 11 11 11 11 11 12 12 12 13 13 13 13 13 14 14 14 14 14 14 14
16 16 15 15 14 14 14 13 13 13 12 12 11 11 10 10 10 10 10 10 10 10 10 10 10 10 11 11 11 12 12 12 13 13 13 13 13 14 14 14 14 14 14
16 16 16 15 15 14 14 14 13 13 12 12 11 11 10 10 10 10 10 10 10 10 10 10 10 10 11 11 11 11 12 12 12 12 13 13 13 13 13 13 13 13 13
17 16 16 15 15 14 14 14 13 13 12 11 11 11 11 10 10 10 10 10 10 10 10 10 10 10 10 11 11 11 11 12 12 12 12 12 13 13 13 13 13 13 13
17 16 16 15 15 15 14 14 13 13 12 11 11 11 11 10 10 10 10 10 10 10 10 10 10 10 10 11 11 11 11 11 12 12 12 12 13 13 13 13 13 13 13
17 17 16 15 15 15 14 14 13 13 12 12 11 11 11 10 10 10 10 10 10 10 10 10 10 10 10 10 11 11 11 11 11 11 12 12 12 12 13 13 13 13 13
17 17 16 16 15 15 15 14 14 13 12 12 11 11 11 10 10 10 10 10 10 10 10 10 10 10 10 10 10 11 11 11 11 11 11 12 12 12 12 12 13 13 13
18 17 16 16 15 15 15 14 14 13 13 12 12 11 11 11 10 10 10 10 10 10 10 10 10 10 10 10 10 10 11 11 11 11 11 11 11 12 12 12 12 12 12
18 17 17 16 16 15 15 15 14 14 13 12 12 12 11 11 11 11 10 10 10 10 10 10 10 10 10 10 10 10 10 10 11 11 11 11 12 12 12 12 12 12 12
18 17 17 16 16 16 15 15 15 14 13 13 13 12 12 11 11 11 11 10 10 10 10 10 10 10 10 10 10 10 10 10 11 11 11 11 11 12 12 12 12 12 12
18 17 17 17 17 16 16 16 15 14 14 13 13 12 12 12 11 11 11 11 10 10 10 10 10 10 10 10 10 10 10 11 11 11 11 11 11 11 12 12 12 12 12
18 17 17 17 17 17 16 16 15 15 14 14 13 13 13 12 12 11 11 11 11 10 10 10 10 10 10 10 10 10 10 11 11 11 11 11 11 11 12 12 12 12 12
18 17 17 17 17 17 16 16 16 15 15 15 14 14 13 13 12 12 12 11 11 11 11 11 10 10 10 10 10 11 11 11 11 11 11 11 11 11 12 12 12 12 12
Wind_Speed
6 6 6 6 7 7 8 8 8 8 7 5 5 5 5 5 5 4 6 7 7 6 4 4 4 5 6 6 7 5 5 4 3 2 0 1 1 3 4 4 5 6 9
7 7 7 6 6 7 8 8 8 8 7 5 5 4 5 5 5 4 5 6 6 6 4 5 5 5 5 7 7 6 5 4 5 4 2 1 1 2 4 4 6 6 6
7 8 8 8 7 8 8 8 8 8 7 7 5 5 4 4 4 4 4 5 6 6 5 5 5 5 6 6 7 8 8 6 5 5 4 4 5 3 2 4 5 6 6
7 7 8 8 8 8 8 8 8 8 7 7 6 6 5 5 5 5 5 7 6 6 6 5 5 6 5 6 7 8 7 7 6 5 4 3 3 4 2 1 2 5 6
7 8 8 8 8 7 7 7 8 7 7 7 7 6 6 5 6 6 7 6 5 5 5 5 5 5 5 7 7 7 8 7 7 6 4 3 2 2 3 3 2 2 3
7 8 7 7 7 7 7 7 7 7 8 8 8 7 8 8 8 8 7 6 5 4 5 5 4 5 5 6 7 7 8 8 7 6 5 5 4 4 4 3 3 3 3
7 7 8 8 8 8 8 7 7 7 8 8 8 8 8 8 7 7 7 6 5 4 5 5 4 4 5 6 6 7 8 8 9 9 7 6 6 4 4 4 3 2 2
7 7 8 7 7 8 7 7 7 7 7 8 8 8 8 6 6 6 6 6 5 5 6 6 5 5 5 5 5 6 7 7 8 9 9 6 6 6 5 5 5 3 2
8 7 7 7 6 7 7 6 6 7 7 7 8 8 8 7 7 7 6 5 5 5 6 6 5 4 4 4 3 4 5 6 7 8 9 7 7 7 6 5 5 6 5
7 7 7 6 6 5 5 5 4 5 6 6 6 6 7 7 7 7 8 8 7 7 7 7 6 5 4 3 3 3 3 4 5 5 7 7 6 7 7 6 5 5 5
8 7 6 6 6 5 5 5 5 5 5 6 6 6 7 7 7 7 8 8 7 7 7 7 6 5 4 3 2 2 3 4 5 5 7 7 7 7 7 7 7 6 5
7 7 6 6 5 5 5 5 4 4 5 5 5 6 6 7 7 8 8 8 8 8 7 7 7 6 5 4 3 2 2 3 4 5 6 7 6 7 6 7 7 7 6
7 6 5 6 6 6 5 5 4 4 5 4 5 6 6 7 7 8 8 8 8 8 8 7 7 7 6 5 4 3 2 3 3 4 6 7 8 8 6 7 7 6 6
7 6 6 6 6 6 5 5 5 4 4 3 4 5 6 6 7 7 7 8 7 7 8 7 7 7 6 6 4 3 3 2 2 3 4 6 8 8 8 8 8 7 7
8 8 7 6 6 6 5 4 4 4 3 3 4 5 6 6 6 7 7 7 7 8 7 7 8 8 6 5 5 4 3 3 2 2 3 4 7 9 9 7 8 8 7
9 8 8 7 6 6 6 5 4 3 2 3 4 5 6 6 6 7 7 7 7 7 7 7 7 8 7 10 9 5 2 2 2 2 2 3 5 8 10 11 12 11 10
9 9 8 7 7 6 6 5 4 2 2 3 4 5 5 6 6 7 7 7 7 6 7 7 7 8 9 12 11 8 3 2 2 2 1 1 2 4 5 8 11 10 11
9 8 7 6 6 4 4 4 2 2 2 4 5 5 5 6 6 6 7 6 5 6 6 7 8 7 10 14 12 8 4 2 2 2 1 1 1 2 5 6 6 6 6
9 8 7 6 5 5 4 3 3 2 3 5 5 5 4 5 6 6 7 5 5 5 5 5 7 8 10 14 12 7 3 2 3 3 2 1 1 4 7 7 7 6 5
7 7 5 4 5 5 4 5 4 4 6 6 5 5 4 4 5 6 5 4 4 5 5 5 6 7 8 13 13 8 3 2 2 3 3 3 3 5 7 6 7 7 6
7 6 6 5 6 5 5 6 6 7 7 5 4 4 4 4 4 4 4 4 5 5 5 6 6 6 8 11 13 9 3 2 2 2 3 2 4 6 7 6 5 7 7
6 6 6 7 6 5 6 7 8 8 5 4 4 4 4 3 2 3 4 4 5 5 6 6 6 5 6 8 10 10 7 4 2 2 2 3 6 8 7 6 9 11 9
7 6 7 7 6 6 8 9 9 7 5 5 6 5 4 3 2 2 3 3 3 4 4 5 5 6 6 7 11 10 9 7 4 3 5 6 8 8 7 9 10 8 6
6 5 6 7 8 7 9 10 8 6 6 7 7 5 5 5 3 2 2 2 2 3 3 4 5 5 5 5 6 6 5 6 5 4 6 9 10 8 8 7 6 5 5
5 5 7 9 10 8 9 9 8 7 7 8 7 6 6 5 5 4 4 4 4 4 3 3 3 3 4 5 8 5 3 3 2 3 3 4 4 5 5 5 5 5 5
5 5 7 9 10 9 9 9 8 9 9 8 8 6 5 5 5 4 4 7 8 8 8 7 5 4 5 7 7 7 5 4 3 3 3 3 3 3 3 4 4 4 4
Wind_Direction
296 306 312 320 327 330 332 327 328 327 334 334 331 325 320 313 309 300 299 297 292 283 264 256 242 220 218 219 207 198 195 198 170 143 214 320 267 225 216 200 193 198 200
310 314 315 320 323 322 325 325 327 325 328 323 310 294 292 294 289 294 306 301 296 289 276 251 245 231 223 222 210 194 184 191 175 162 144 193 290 265 225 201 204 205 193
296 306 312 312 318 321 323 327 324 324 324 326 322 319 313 311 317 318 312 305 304 294 277 261 245 235 225 225 217 203 191 191 189 181 165 170 204 215 246 219 209 196 194
293 300 307 311 315 314 318 323 325 325 327 332 333 334 328 318 304 303 297 299 298 296 288 270 250 238 228 228 224 212 204 188 190 189 193 183 163 167 194 259 220 201 200
287 297 302 301 308 314 319 323 329 330 334 338 336 332 326 312 307 308 305 306 300 296 296 283 260 245 236 231 226 214 206 199 192 180 171 176 173 181 166 191 201 201 209
293 299 302 308 312 319 324 330 335 332 337 341 341 339 331 325 326 326 323 317 308 301 303 299 277 257 245 238 228 217 210 208 201 189 175 171 172 188 178 177 182 194 207
289 296 304 310 314 320 324 328 332 329 335 340 341 339 334 331 328 326 324 323 318 311 310 305 295 277 256 244 231 220 215 209 204 198 195 189 190 173 171 167 163 169 189
285 287 289 294 304 312 320 326 328 325 330 336 336 337 340 337 333 329 327 324 317 307 311 307 296 289 280 260 236 224 220 212 210 207 199 195 195 188 181 174 161 158 185
283 285 291 296 301 306 311 316 321 323 330 335 335 337 342 345 343 340 339 335 329 323 325 321 312 300 296 288 256 233 224 214 212 208 203 199 195 193 190 180 173 167 183
282 287 291 294 297 297 303 317 321 322 326 335 339 344 342 344 344 347 348 345 339 336 334 333 326 318 306 297 275 251 237 217 213 206 201 201 195 193 195 194 189 181 177
276 279 283 289 296 304 309 313 320 325 329 334 337 344 343 345 347 348 346 343 340 341 342 341 341 337 333 323 294 266 242 225 220 212 204 204 192 190 196 193 189 186 173
270 273 279 291 300 305 307 306 307 314 317 325 336 340 340 343 346 343 341 342 344 343 342 344 348 348 344 338 327 299 270 234 225 216 207 203 195 191 193 193 193 188 179
279 280 284 288 290 292 297 298 298 303 313 328 337 341 341 341 339 337 338 341 343 344 346 348 348 345 341 338 336 325 292 254 240 226 216 207 192 193 192 189 189 188 182
271 271 275 280 281 282 285 291 292 297 309 328 337 335 331 330 329 334 338 340 341 344 345 345 345 342 337 335 335 334 325 299 268 243 226 210 196 192 188 188 185 182 177
268 265 263 271 279 281 283 281 284 298 313 329 332 324 322 327 334 339 339 339 343 346 343 347 347 344 341 339 337 330 328 321 313 288 246 219 200 196 191 187 183 178 174
260 263 263 266 270 269 270 270 274 286 303 316 316 320 327 332 337 337 337 342 345 345 350 351 346 346 345 341 343 338 324 325 319 304 281 234 207 202 199 192 185 179 176
251 254 255 252 258 260 252 251 257 264 292 304 311 319 325 329 331 335 342 343 342 346 349 347 346 343 338 345 349 353 347 337 327 308 306 264 206 185 179 184 180 183 182
243 244 243 247 255 252 243 235 229 238 278 296 303 311 320 322 328 337 340 337 336 341 341 342 343 342 344 351 354 357 359 356 351 342 312 283 230 184 159 155 154 157 167
231 232 230 230 243 247 230 199 217 239 270 282 288 298 310 317 327 334 332 330 333 338 339 338 345 346 344 352 354 359 350 1 7 2 6 50 132 160 141 138 135 132 133
226 226 226 222 237 239 195 191 219 236 254 261 270 285 296 305 313 319 321 323 324 324 331 341 346 347 343 347 353 359 355 10 6 7 22 46 69 103 121 133 136 135 129
225 219 213 223 235 218 182 206 224 237 244 252 265 280 288 291 296 313 321 327 332 338 344 341 340 345 345 347 355 4 7 11 14 19 25 42 78 92 99 111 125 131 126
228 212 212 235 237 201 191 217 234 239 237 241 255 269 278 286 306 317 325 337 344 346 346 344 342 342 345 350 355 10 23 29 35 26 22 48 79 89 94 101 119 120 116
233 218 216 238 243 213 201 221 239 229 220 231 246 257 266 270 277 292 311 329 343 343 338 340 339 337 340 349 1 10 19 26 36 43 57 66 75 81 90 102 109 110 111
244 231 222 236 248 229 216 227 236 213 209 229 243 246 252 264 265 253 254 272 296 312 322 327 327 327 335 348 354 353 2 20 34 48 62 69 70 72 78 84 83 83 100
261 239 231 241 250 244 232 233 225 204 213 230 239 240 238 246 257 252 236 236 239 225 247 272 284 307 325 329 338 345 348 358 26 55 59 62 72 74 72 73 74 80 91
291 272 255 251 256 252 247 243 220 202 209 227 235 233 231 235 240 253 272 243 236 249 246 240 241 253 266 303 333 350 1 13 49 75 79 76 81 95 99 102 90 84 100
Height
1555 1553 1551 1548 1544 1541 1537 1533 1530 1526 1523 1519 1516 1514 1512 1510 1509 1508 1508 1508 1508 1508 1509 1509 1511 1513 1514 1517 1519 1521 1524 1526 1530 1532 1534 1536 1538 1541 1543 1545 1547 1549 1551
1554 1552 1550 1547 1543 1540 1536 1532 1529 1525 1522 1518 1515 1512 1509 1507 1506 1505 1504 1504 1504 1504 1504 1505 1506 1508 1510 1511 1514 1516 1518 1521 1524 1527 1530 1532 1535 1536 1539 1541 1544 1546 1549
1552 1551 1548 1545 1542 1539 1535 1532 1528 1524 1521 1517 1514 1511 1508 1505 1504 1502 1501 1500 1500 1500 1500 1500 1501 1503 1504 1506 1508 1511 1513 1515 1519 1522 1525 1527 1529 1532 1534 1536 1540 1542 1545
1551 1549 1547 1544 1541 1538 1535 1531 1527 1524 1520 1517 1513 1510 1506 1504 1501 1499 1498 1497 1496 1495 1495 1496 1496 1498 1499 1501 1503 1505 1507 1510 1513 1516 1519 1523 1525 1527 1529 1532 1535 1538 1541
1550 1548 1546 1543 1541 1537 1534 1531 1527 1524 1520 1516 1513 1509 1506 1503 1500 1498 1495 1494 1493 1492 1492 1491 1492 1493 1494 1496 1497 1499 1502 1504 1507 1510 1513 1517 1520 1523 1524 1526 1530 1533 1536
1549 1547 1545 1543 1540 1537 1534 1530 1527 1523 1519 1516 1512 1509 1505 1502 1499 1496 1494 1492 1490 1489 1488 1488 1488 1488 1489 1490 1492 1494 1496 1499 1501 1504 1507 1510 1513 1517 1520 1522 1524 1527 1531
1547 1545 1544 1541 1539 1536 1533 1529 1526 1523 1519 1515 1512 1509 1505 1501 1498 1495 1492 1490 1488 1487 1486 1485 1484 1484 1485 1485 1487 1488 1490 1493 1495 1498 1501 1504 1507 1511 1515 1518 1521 1523 1526
1546 1544 1542 1540 1538 1535 1532 1529 1526 1522 1519 1515 1512 1508 1505 1501 1498 1495 1491 1489 1486 1485 1483 1482 1482 1481 1481 1481 1482 1483 1485 1487 1490 1492 1495 1498 1501 1505 1509 1513 1516 1519 1522
1544 1543 1541 1539 1537 1534 1532 1529 1525 1522 1519 1515 1512 1508 1505 1501 1498 1494 1491 1488 1485 1483 1482 1480 1479 1478 1478 1478 1478 1479 1480 1482 1484 1487 1490 1493 1496 1499 1503 1507 1511 1515 1517
1542 1541 1540 1538 1536 1534 1531 1528 1525 1522 1519 1515 1512 1508 1505 1501 1498 1494 1491 1487 1485 1482 1480 1478 1476 1476 1475 1475 1475 1475 1476 1478 1480 1482 1485 1488 1490 1494 1497 1501 1505 1508 1512
1540 1539 1538 1537 1535 1533 1530 1528 1525 1522 1519 1515 1512 1508 1505 1501 1498 1494 1491 1487 1484 1481 1478 1476 1474 1473 1472 1472 1472 1472 1473 1474 1476 1477 1480 1482 1485 1488 1492 1495 1498 1502 1506
1538 1538 1537 1535 1534 1532 1529 1527 1524 1521 1518 1515 1512 1508 1505 1501 1498 1494 1491 1487 1484 1481 1478 1475 1473 1472 1471 1470 1470 1470 1470 1471 1472 1473 1475 1478 1481 1483 1486 1489 1492 1496 1499
1536 1536 1535 1534 1532 1530 1528 1526 1524 1521 1518 1515 1512 1508 1505 1501 1498 1494 1491 1487 1484 1481 1478 1476 1473 1471 1470 1469 1468 1468 1468 1468 1469 1470 1472 1474 1476 1478 1481 1484 1487 1491 1494
1534 1534 1533 1532 1531 1529 1527 1525 1523 1520 1517 1514 1511 1508 1505 1501 1498 1494 1491 1487 1484 1481 1478 1476 1473 1471 1470 1468 1467 1466 1466 1466 1466 1467 1468 1470 1472 1474 1477 1480 1482 1486 1489
1532 1531 1531 1530 1529 1527 1526 1524 1522 1519 1517 1514 1511 1508 1504 1501 1498 1495 1491 1488 1485 1481 1479 1476 1474 1471 1469 1468 1467 1466 1465 1464 1464 1464 1465 1466 1468 1470 1473 1476 1478 1482 1484
1529 1529 1529 1528 1527 1526 1524 1523 1521 1519 1516 1514 1511 1507 1504 1502 1498 1495 1492 1489 1485 1482 1479 1476 1474 1472 1469 1468 1467 1465 1464 1463 1463 1462 1463 1464 1465 1467 1470 1472 1475 1478 1480
1527 1527 1527 1526 1526 1525 1523 1522 1520 1518 1516 1513 1510 1507 1505 1502 1499 1495 1492 1489 1486 1483 1480 1477 1474 1471 1469 1468 1466 1465 1463 1462 1462 1461 1461 1462 1463 1465 1467 1470 1472 1475 1478
1524 1524 1525 1524 1524 1523 1522 1520 1519 1517 1515 1513 1510 1508 1505 1502 1499 1496 1493 1490 1486 1483 1480 1477 1474 1472 1470 1468 1466 1464 1463 1461 1460 1460 1460 1460 1461 1463 1465 1467 1470 1472 1475
1522 1522 1523 1522 1522 1521 1520 1519 1517 1516 1514 1512 1510 1507 1505 1502 1499 1496 1493 1490 1487 1484 1481 1478 1475 1472 1470 1468 1466 1464 1462 1461 1460 1459 1459 1459 1460 1461 1463 1466 1468 1471 1474
1520 1520 1521 1520 1520 1519 1518 1517 1516 1514 1513 1511 1509 1507 1505 1502 1499 1496 1493 1491 1488 1485 1482 1479 1476 1473 1470 1468 1466 1464 1462 1461 1460 1460 1459 1459 1459 1461 1463 1465 1467 1470 1473
1518 1518 1518 1518 1518 1517 1516 1515 1514 1513 1512 1510 1508 1506 1504 1502 1499 1496 1494 1491 1488 1485 1482 1479 1476 1474 1471 1469 1466 1464 1463 1462 1461 1461 1460 1460 1461 1462 1464 1466 1468 1470 1473
1516 1516 1516 1516 1516 1515 1515 1513 1512 1512 1510 1509 1507 1506 1504 1501 1499 1496 1494 1491 1488 1486 1483 1480 1477 1474 1472 1470 1468 1466 1465 1464 1463 1463 1462 1463 1463 1464 1466 1468 1470 1472 1475
1514 1514 1514 1513 1513 1513 1512 1511 1511 1510 1508 1507 1506 1504 1503 1501 1498 1496 1494 1491 1489 1486 1483 1481 1478 1475 1473 1471 1469 1468 1467 1466 1465 1465 1465 1465 1466 1467 1469 1471 1473 1475 1477
1512 1512 1511 1511 1510 1510 1509 1509 1508 1507 1506 1505 1504 1503 1501 1500 1498 1495 1493 1491 1489 1486 1484 1481 1479 1477 1474 1472 1471 1470 1469 1468 1468 1468 1468 1469 1469 1470 1472 1474 1475 1477 1479
1510 1509 1509 1508 1508 1507 1507 1506 1505 1505 1503 1502 1501 1500 1499 1498 1496 1494 1492 1490 1489 1486 1484 1482 1480 1478 1476 1474 1473 1471 1471 1471 1471 1471 1471 1472 1473 1474 1475 1477 1479 1480 1482
1507 1506 1505 1504 1504 1504 1503 1503 1502 1501 1500 1499 1498 1497 1496 1495 1494 1492 1491 1489 1487 1486 1484 1482 1480 1479 1477 1476 1475 1474 1473 1473 1473 1474 1474 1475 1476 1477 1478 1480 1481 1483 1485